Showing default

GUANGCHUAN 02, 62112

Orbit data source: Space-Track

GUANGCHUAN 02, 62112 is a payload satellite owned by Hongqing Keji (CN) in LEO that was launched on Wed, 27 Nov 2024 UTC via a ZHUQUE-2E launch vehicle from the Jiuquan Satellite Launch Center, China (JSC). Payload-class satellites include a variety of spacecraft equipped with specific instruments for various scientific and technological missions. These include communications satellites like Starlink; space stations such as the ISS; scientific satellites like the Hubble; Earth observation satellites from companies like Planet Labs, Umbra, and HawkEye 360; GPS; miniature CubeSats for education and research; and military/defense satellites.

Loading next visibility...
Identifier
62112, 2024-221B
Orbit
LEO
Country
Flag of CNCN / PRC
Related business
Manufacturer
CAST?
Mission
Operational Commercial Communications
Bus & Motor
HQ, Unknown motor
Mass
~500 kg wet, ~500 kg dry
Launch date (UTC)
2024-11-27 (1 year ago)
Launch vehicle
ZHUQUE-2E
Launch site
Jiuquan Satellite Launch Center, China (JSC)
Object type
Payload
Rocket body
Debris
Shape & HBR
Box + 2 Pan, 3.0 m
Radar Cross Section
4.560 m², Large (>1 m²)

Expand to show TLE details & history
Last TLE update: 9 hours ago

TLE from 9 hours ago
0 GUANGCHUAN 02
1 62112U 24221B   25342.79039911  .00006891  00000-0  37139-3 0  9998
2 62112  49.9437  10.0049 0007572 299.4492  60.5703 15.15781241 57305
Epoch: 2025-12-08T18:58Z
TLE epoch observation values (Epoch: 2025-12-08T18:58:10.483Z)
Latitude
-0.00001°
Longitude
7.67684°
Altitude
516.591 km
Speed
7.608 km/s
True Right ascension
00h 40m 01s
True Declination
0° 00' 00"
Sunlit
Object was in partial shadow at epoch
Visualization orbit readout
Latitude
Unknown
Longitude
Unknown
Altitude
Unknown
Speed
Unknown
Apparent Right ascension
Unknown
Apparent Declination
Unknown
Sunlit
N/A
Visualization observer readout
Local Sidereal Time
02:09:38
Azimuth
Unknown
Elevation
Unknown
Doppler factor
Unknown
Orbital elements
Apogee altitude
524.609 km
Perigee altitude
514.163 km
Semi-major axis
6,897.523 km
Eccentricity
0.00076
Inclination
49.9437°
RAAN
10.0049°
Arg. of periapsis
299.4492°
True anomaly
60.64591°
Mean anomaly
60.5703°
Eccentric anomaly
60.6081°
Mean motion
3.78882 °/min
Orbital period
95.02 mins
BSTAR
0.00037139
Loading maneuver chart data...
Computing Atmospheric mass density...
Loading historical data...
Loading historical data...
Loading historical data...
Loading historical data...
Loading historical data...
Loading historical data...
Loading historical data...
Other satellites on launch #221 in the year 2024 (2024-11-27 UTC)

Documentation

Showing up to 5 results
|